sat.trackr.live / text

‹ back to catalog

STARLINK-32156

NORAD 60278 · 2024-132A

PAYLOAD ACTIVE UNKNOWN

§ Identity

Operator
Country
US
Launch date
2024-07-28
Launch site
AFETR
Launch vehicle
Mass (kg)
RCS (m²)

Purposes: comms

External: N2YO · Heavens-Above · Gunter

§ Orbital elements

Epoch: 2026-09-21T07:24:01.635264Z

Period
93.85 min
Inclination
53.1584°
Eccentricity
0.0001250
Mean motion
15.34396085 rev/d
Perigee alt
461.9 km
Apogee alt
463.6 km
Semi-major
6,840.9 km
B*
1.0571e-5
RAAN
222.1611°
Arg perigee
85.0533°
Mean anomaly
275.0613°
Rev number
12,275

§ Raw data

STARLINK-321561 60278U 24132A   26264.30835226 -.00000019  00000+0  10571-4 0  99922 60278  53.1584 222.1611 0001250  85.0533 275.0613 15.34396085122753

JSON: /api/v1/satellites/60278 · /tle

For live sub-satellite position, see the globe view (requires WebGL).

§ Visibility from observer

Set your observer location to see the next 7 days of passes ≥ 10°. The values pass through the URL so the page stays shareable.

No JS? Fill the form by hand. The geolocation button needs JavaScript.